Content
SEND FEEDBACK

Daily
Averages
Monthly
Summary
United States of America

HOLLY SPRINGS, MISSISSIPPI


Home > North America > United States > Mississippi
Elevation: 511 feet     Latitude: 34 49N     Longitude: 089 26W

WEATHER
 
SELECT A DAY
Number of Records: 201,828;   Date Range: 10/3/00 - 8/30/14
 
SHARE

PRINT THIS DATA

[ ← Previous Day ]
WEATHER ALMANAC - JANUARY 31, 2013
[ Next Day → ]
[ °C ]   °F
Weather ElementAverageHighLow
Temperature36.7 °F51.8 °F (1:55 pm)26.6 °F (5:15 am)
Dewpoint30.4 °F35.6 °F (7:50 pm)26.6 °F (1:15 am)
Humidity80.5 %100 % (4:15 am)47 % (1:55 pm)
Barometer30.14 in30.34 in (11:55 pm)30.05 in (12:35 am)
Wind Speed10.7 mph21.9 mph (8:55 pm)
Wind Gust32.2 mph (11:35 pm)
Weather ElementAverage
Visibility9.7 mi
Wind DirectionWSW (255.9 °)

Weather ElementTotal
Precipitation---
Heating Degree Days25.8 (Base 65)
Averaged from 39 records on January 31, 2013
WEATHER CONDITIONS BREAKOUT
WIND DIRECTION BREAKOUT
WEATHER BY HOUR - JANUARY 31, 2013
[ °C ]   °F
Local TimeTemperatureDewpointHumidityBarometerVisibilityWind DirectionWind SpeedGust SpeedPrecipitationEventsConditions
12:35 AM32.0 °F30.2 °F93 %30.05 in8.0 miWNW (290°)15.0 mph21.9 mph0.00 inClear
12:55 AM32.0 °F28.4 °F87 %30.06 in10.0 miWest (280°)17.3 mph0.00 inClear
1:15 AM32.0 °F26.6 °F80 %30.05 in10.0 miWNW (290°)16.1 mph21.9 mph0.00 inClear
1:35 AM32.0 °F28.4 °F87 %30.05 in10.0 miWNW (290°)11.5 mph0.00 inClear
1:55 AM32.0 °F28.4 °F87 %30.07 in10.0 miWest (270°)5.8 mph0.00 inClear
2:15 AM32.0 °F28.4 °F87 %30.06 in8.0 miWNW (290°)6.9 mph0.00 inClear
2:35 AM32.0 °F28.4 °F87 %30.06 in9.0 miWest (280°)9.2 mph0.00 inClear
3:15 AM30.2 °F28.4 °F93 %30.06 in8.0 miWest (270°)4.6 mph0.00 inClear
3:35 AM30.2 °F28.4 °F93 %30.07 in10.0 miWSW (250°)3.5 mph0.00 inClear
4:15 AM28.4 °F28.4 °F100 %30.06 in10.0 miWest (260°)3.5 mph0.00 inClear
4:35 AM28.4 °F28.4 °F100 %30.06 in10.0 miCalm0.00 inClear
4:55 AM28.4 °F28.4 °F100 %30.07 in10.0 miCalm0.00 inClear
5:15 AM26.6 °F26.6 °F100 %30.08 in10.0 miSSW (210°)5.8 mph0.00 inClear
5:35 AM28.4 °F28.4 °F100 %30.09 in8.0 miSW (230°)6.9 mph0.00 inClear
5:55 AM28.4 °F28.4 °F100 %30.11 in10.0 miSW (230°)9.2 mph0.00 inClear
6:50 AM28.4 °F28.4 °F100 %30.14 in9.0 miCalmClear
7:50 AM30.2 °F30.2 °F100 %30.16 in10.0 miWSW (240°)5.8 mphClear
8:50 AM33.8 °F30.2 °F87 %30.19 in10.0 miWSW (250°)6.9 mphClear
9:50 AM35.6 °F30.2 °F81 %30.20 in10.0 miWest (260°)5.8 mphClear
10:50 AM39.2 °F30.2 °F70 %30.19 in10.0 miSW (220°)10.4 mphClear
11:50 AM44.6 °F30.2 °F57 %30.16 in10.0 miSSW (200°)5.8 mphClear
12:53 PM48.2 °F30.2 °F50 %30.12 in10.0 miWSW (240°)16.1 mphClear
1:55 PM51.8 °F32.0 °F47 %30.09 in10.0 miWSW (240°)13.8 mphClear
2:50 PM51.8 °F32.0 °F47 %30.08 in10.0 miSSW (210°)11.5 mph17.3 mphClear
3:50 PM51.8 °F32.0 °F47 %30.08 in10.0 miWSW (240°)11.5 mph17.3 mphPartly Cloudy
5:50 PM46.4 °F32.0 °F57 %30.10 in10.0 miSW (220°)9.2 mphPartly Cloudy
7:50 PM44.6 °F35.6 °F71 %30.13 in10.0 miWest (270°)4.6 mphScattered Clouds
8:15 PM44.6 °F35.6 °F71 %30.14 in9.0 miSW (230°)6.9 mph0.00 inOvercast
8:35 PM46.4 °F33.8 °F62 %30.17 in10.0 miNNW (330°)15.0 mph0.00 inMostly Cloudy
8:55 PM44.6 °F32.0 °F61 %30.19 in10.0 miNNW (340°)21.9 mph0.00 inScattered Clouds
9:15 PM44.6 °F32.0 °F61 %30.21 in9.0 miNW (320°)15.0 mph23.0 mph0.00 inScattered Clouds
9:35 PM42.8 °F32.0 °F66 %30.21 in10.0 miNorth (350°)17.3 mph21.9 mph0.00 inMostly Cloudy
9:55 PM39.2 °F33.8 °F81 %30.24 in10.0 miNorth (350°)19.6 mph23.0 mph0.00 inScattered Clouds
10:15 PM37.4 °F33.8 °F87 %30.27 in10.0 miNNW (340°)15.0 mph24.2 mph0.00 inPartly Cloudy
10:35 PM35.6 °F32.0 °F87 %30.28 in10.0 miNNW (330°)13.8 mph21.9 mph0.00 inPartly Cloudy
10:55 PM35.6 °F30.2 °F81 %30.29 in9.0 miNNW (340°)20.7 mph25.3 mph0.00 inMostly Cloudy
11:15 PM35.6 °F32.0 °F87 %30.30 in10.0 miNNW (330°)16.1 mph21.9 mph0.00 inOvercast
11:35 PM32.0 °F30.2 °F93 %30.32 in10.0 miNorth (350°)21.9 mph32.2 mph0.00 inOvercast
11:55 PM32.0 °F30.2 °F93 %30.34 in10.0 miNNW (340°)18.4 mph23.0 mph0.00 inMostly Cloudy
Hourly data recorded from KOLV, located miles away from Holly Springs, Mississippi







STORIES FROM OUR PARTNERS